Location: CCZU
(31.6840°N, 119.9550°E)
Time: 13:15:52
(UTC+08:00)

ISS - Visible Passes

Search period start: 02 December 2023 00:00
Search period end: 12 December 2023 00:00
Orbit: 416 x 417 km, 51.6° (Epoch: 01 December)

Date Brightness Start Highest point End Pass type
(mag) Time Alt. Az. Time Alt. Az. Time Alt. Az.
02 Dec -1.1 18:23:43 10° N 18:23:44 10° N 18:23:44 10° N visible
04 Dec -2.9 18:22:37 10° NNW 18:25:03 35° N 18:25:03 35° N visible
05 Dec -2.5 17:34:27 10° NNW 17:37:13 23° NE 17:39:41 12° E visible
05 Dec -1.0 19:11:07 10° WNW 19:12:40 19° W 19:12:40 19° W visible
06 Dec -2.9 18:22:12 10° NW 18:25:26 49° SW 18:27:51 16° SSE visible
07 Dec -3.9 17:33:33 10° NW 17:36:54 77° NE 17:40:13 10° SE visible
08 Dec -0.5 18:22:53 10° W 18:24:41 14° SW 18:26:30 10° SSW visible
09 Dec -1.3 17:33:18 10° WNW 17:36:11 27° SW 17:39:03 10° S visible
